Imperial, NE

7:48 AM MDT on July 21, 2017 (GMT -0600)
Imperial Municipal

Weather History for KIML - October, 2015

Change the Weather History Date:

Saturday, October 17, 2015

  Actual Average Record
Temperature  
Mean Temperature 52 °F 50 °F  
Max Temperature 70 °F 65 °F 91 °F (1926)
Min Temperature 33 °F 36 °F 15 °F (1922)
Degree Days  
Heating Degree Days 13 15  
Month to date heating degree days 121 196  
Cooling Degree Days 0 0  
Month to date cooling degree days 10 3  
Year to date cooling degree days 1037 960  
Growing Degree Days 2 (Base 50)    
Moisture  
Dew Point 31 °F    
Average Humidity 52    
Maximum Humidity 75    
Minimum Humidity 28    
Precipitation  
Precipitation 0.00 in 0.05 in 0.39 in (1994)
Sea Level Pressure  
Sea Level Pressure 30.23 in    
Wind  
Wind Speed 11 mph (SE)    
Max Wind Speed 22 mph    
Max Gust Speed 28 mph    
Visibility 10 miles    
Events      
T = Trace of Precipitation, MM = Missing Value Source: NWS Daily Summary

Daily Weather History Graph

Daily Weather History Graph

Search for Another Location

Airport or City:

Trip Planner

Search our weather history database for the weather conditions in past years. The results will help you decide how hot, cold, wet, or windy it might be!

Date:

Astronomy

Oct. 17, 2015 Rise Set
Actual Time 6:59 AM MDT 6:03 PM MDT
Civil Twilight 6:31 AM MDT 6:31 PM MDT
Nautical Twilight 6:00 AM MDT 7:02 PM MDT
Astronomical Twilight 5:28 AM MDT 7:34 PM MDT
Moon 11:10 AM MDT (10/17) 9:21 PM MDT (10/17)
Length of Visible Light 11h 59m
Length of Day
11h 04m
Waxing Crescent, 20% of the Moon is Illuminated
Oct 17
Waxing Crescent
Oct 20
First Quarter
Oct 27
Full
Nov 3
Last Quarter
Nov 11
New

Hourly Weather History & Observations

Time (MDT) Temp. Windchill Dew Point Humidity Pressure Visibility Wind Dir Wind Speed Gust Speed Precip Events Conditions
12:53 AM 44.1 °F 39.5 °F 27.0 °F 51% 30.28 in 10.0 mi SSE 8.1 mph - N/A   Clear
1:53 AM 44.1 °F 38.6 °F 27.0 °F 51% 30.27 in 10.0 mi SSE 10.4 mph - N/A   Clear
2:53 AM 41.0 °F 37.1 °F 27.0 °F 57% 30.27 in 10.0 mi SSE 5.8 mph - N/A   Clear
3:53 AM 37.0 °F 32.4 °F 27.0 °F 67% 30.28 in 10.0 mi SE 5.8 mph - N/A   Clear
4:53 AM 36.0 °F 31.1 °F 27.0 °F 70% 30.27 in 10.0 mi SE 5.8 mph - N/A   Clear
5:53 AM 34.0 °F 28.8 °F 26.1 °F 73% 30.30 in 10.0 mi SE 5.8 mph - N/A   Clear
6:53 AM 34.0 °F 28.8 °F 27.0 °F 75% 30.31 in 10.0 mi SE 5.8 mph - N/A   Clear
7:53 AM 39.0 °F 34.0 °F 30.0 °F 70% 30.32 in 10.0 mi SE 6.9 mph - N/A   Clear
8:53 AM 46.9 °F - 30.0 °F 52% 30.31 in 10.0 mi SSE 9.2 mph - N/A   Clear
9:53 AM 55.0 °F - 28.9 °F 37% 30.28 in 10.0 mi South 18.4 mph - N/A   Clear
10:53 AM 60.1 °F - 30.9 °F 33% 30.26 in 10.0 mi South 15.0 mph 25.3 mph N/A   Clear
11:53 AM 63.0 °F - 34.0 °F 34% 30.24 in 10.0 mi South 15.0 mph - N/A   Clear
12:53 PM 66.9 °F - 35.1 °F 31% 30.21 in 10.0 mi SSE 13.8 mph - N/A   Clear
1:53 PM 69.1 °F - 35.1 °F 29% 30.18 in 10.0 mi SSE 19.6 mph 27.6 mph N/A   Clear
2:53 PM 69.1 °F - 35.1 °F 29% 30.17 in 10.0 mi SSE 17.3 mph - N/A   Clear
3:53 PM 68.0 °F - 35.1 °F 30% 30.17 in 10.0 mi SE 19.6 mph 24.2 mph N/A   Clear
4:53 PM 66.9 °F - 35.1 °F 31% 30.17 in 10.0 mi SSE 16.1 mph - N/A   Clear
5:53 PM 63.0 °F - 36.0 °F 37% 30.17 in 10.0 mi SE 12.7 mph - N/A   Clear
6:53 PM 57.0 °F - 30.9 °F 37% 30.19 in 10.0 mi SE 15.0 mph - N/A   Clear
7:53 PM 54.0 °F - 30.9 °F 41% 30.19 in 10.0 mi SE 15.0 mph - N/A   Clear
8:53 PM 50.0 °F - 30.9 °F 48% 30.19 in 10.0 mi SE 11.5 mph - N/A   Clear
9:53 PM 46.9 °F - 30.9 °F 54% 30.18 in 10.0 mi SE 10.4 mph - N/A   Clear
10:53 PM 44.1 °F 39.5 °F 30.0 °F 58% 30.17 in 10.0 mi ESE 8.1 mph - N/A   Clear
11:53 PM 42.1 °F 38.4 °F 30.0 °F 62% 30.14 in 10.0 mi ESE 5.8 mph - N/A   Clear